map of BVB home
BVB - Airport
Location
City:  Boa Vista, Roraima, Brazil
Name:Atlas Brasil Cantanhede Airport
ICAO:SBBV
IATA:BVB

Details
Type:Airport (Aerodrome, Airfield)
Use:Public/Civil, International (customs port of entry)
Latitude:250'47"N (2.846311)
Longitude:6041'24"W (-60.690068)
Datum:WGS 1984
Elevation:276 ft (84 m)
Variation:15.50W (WMM2015 magnetic declination)
-0.09 annual change
Runways:1
Longest:8858 × 148 ft (2700 × 45 m), paved

Time
Time Zone:UTC-4
Local Time:

Weather
METAR:SBBV 181800Z 10009KT 9999 BKN040 FEW045TCU 34/20 Q1009
TAF:SBBV 181000Z 1812/1912 09005KT 9999 FEW030 TX34/1817Z TN26/1907Z
BECMG 1816/1817 13008KT SCT040 FEW045TCU
BECMG 1822/1824 09005KT FEW040
RMK PEN

Related Locations
Nearby:
Farthest:WAFS: 12450 mi / 20036 km
Sumarorong [Sumarorong Airport], SR, ID

Find:

   beyond  
but within

Other Information
Maps:
NOTAMs:
Links:
Sources:

  
  • flag of Brazil
  • flag of Roraima
  

Sectional Chart

Flight Planning
at skyvector.com

Satellite Image

Google Maps Satellite view

 

Copyright © 2004-2018 Karl L. Swartz. All rights reserved.
The Great Circle Mapper name and logo are trademarks of the Great Circle Mapper.
All other trademarks mentioned herein belong to their respective owners.
Please see credits for attibutions and further copyright information.

  Follow gcmap on Facebook Follow gcmap on Twitter Follow gcmap on Google+ GCmap on LinkedIn

hCard Microformat

Geo Microformat